Regional Weather Roundup
Issued by NWS

Home | Current Version | Previous Version | Graphics & Text | Print | Product List | Glossary On
Versions: 1 2 3 4 5 6 7 8 9 10 11 12 13 14 15 16 17 18 19 20 21 22 23 24 25 26 27 28 29 30 31 32 33 34 35 36 37 38 39 40 41 42 43 44 45 46 47 48 49 50
000
ASUS43 KMPX 231801
RWRMN
WEATHER ROUNDUP FOR MINNESOTA
NATIONAL WEATHER SERVICE TWIN CITIES/CHANHASSEN MN
100 PM CDT TUE SEP 23 2014


NOTE: "FAIR" INDICATES FEW OR NO CLOUDS BELOW 12,000 FEET WITH NO
SIGNIFICANT WEATHER AND/OR OBSTRUCTIONS TO VISIBILITY. N/A MEANS
CURRENT SKY AND/OR WEATHER CONDITIONS ARE NOT AVAILABLE.

MNZ060>063-068>070-231900-
   Twin Cities Metro

CITY           SKY/WX    TMP DP  RH WIND       PRES   REMARKS
TWIN CITIES    PTSUNNY   72  49  44 S15       30.21F
6HR MIN TEMP:  51; 6HR MAX TEMP:  72;

ST PAUL        MOSUNNY   72  52  49 S15G21    30.21F
CRYSTAL        MOSUNNY   74  51  44 S14       30.19F
LAKEVILLE      MOSUNNY   72  52  49 S9        30.21F
EDEN PRAIRIE   MOSUNNY   73  53  49 S12G22    30.20S
6HR MIN TEMP:  50; 6HR MAX TEMP:  74;

SOUTH ST PAUL  MOSUNNY   73  48  41 S8        30.21F
LAKE ELMO      FAIR      72  54  53 S12       30.23F
$$
MNZ001>005-007-008-013>017-022>024-027-028-231900-
   Northwest Minnesota

CITY           SKY/WX    TMP DP  RH WIND       PRES   REMARKS
BEMIDJI        SUNNY     74  51  45 S17       30.11S
HALLOCK        SUNNY     75  55  50 S20       29.99S
ROSEAU         SUNNY     75  57  53 S14       30.04S
WARROAD        SUNNY     75  59  57 S9        30.05S
THIEF RVR FALL MOSUNNY   73  57  56 S15G22    30.04S
CROOKSTON      SUNNY     73  57  56 S16       30.04S
FOSSTON        SUNNY     75  54  46 S18       30.08S
DETROIT LAKES  MOSUNNY   68  55  64 S14       30.11S
MOORHEAD       PTSUNNY   73  57  56 S14       30.06F
PARK RAPIDS    MOSUNNY   73  51  46 S14G23    30.12S
$$
MNZ006-009>011-018-025>026-231900-
   North Central Minnesota

CITY           SKY/WX    TMP DP  RH WIND       PRES   REMARKS
BAUDETTE       SUNNY     74  52  46 S15G23    30.07F
FLAG ISLAND    SUNNY     63  54  72 S14       30.05S
INTL FALLS     SUNNY     72  49  44 S12G23    30.12S
6HR MIN TEMP:  41; 6HR MAX TEMP:  72;

WASKISH        SUNNY     73  54  49 CALM      30.10S
BIG FORK       SUNNY     73  54  49 S14G23    30.15S
LONGVILLE      SUNNY     72  54  53 S13G18    30.14F
GRAND RAPIDS   SUNNY     70  48  46 S16G23    30.16F
CRANE LAKE     SUNNY     72  46  40 S7        30.16F
ORR            SUNNY     72  45  37 S14G23    30.13F
COOK           SUNNY     72  52  49 SE10G17   30.17S
WALKER         FAIR      72  51  46 S15       30.12S
$$
MNZ012-019>021-037-231900-
   Northeast Minnesota

CITY           SKY/WX    TMP DP  RH WIND       PRES   REMARKS
DULUTH         SUNNY     71  52  50 S17G23    30.20S
6HR MIN TEMP:  51; 6HR MAX TEMP:  71;

ELY            SUNNY     72  48  43 S8G16     30.18S
HIBBING        SUNNY     72  50  45 S12G17    30.17F
EVELETH        SUNNY     72  50  46 S15       30.19S
DULUTH HARBOR  SUNNY     64  55  72 NE5       30.20S
TWO HARBORS    SUNNY     70  52  52 SW12      30.19S
SILVER BAY     SUNNY     70  55  60 S13       30.19S
GRAND MARAIS     N/A     56  51  84 SW9       30.20S
G MARAIS ARPRT SUNNY     70  46  43 S8        30.24R
$$
MNZ029>031-032-039>041-046>048-054>057-064-231900-
   West Central Minnesota

CITY           SKY/WX    TMP DP  RH WIND       PRES   REMARKS
FERGUS FALLS   MOSUNNY   72  48  43 S20G25    30.10S
WHEATON        PTSUNNY   64  52  63 S16G23    30.12R
MORRIS         MOSUNNY   68  54  60 S18G25    30.12S
ALEXANDRIA     MOSUNNY   68  53  58 S15       30.15S
ELBOW LAKE     FAIR      70  53  54 S18G24    30.11S
WADENA         PTSUNNY   72  54  53 S16       30.12F
GLENWOOD       MOSUNNY   70  54  56 S15       30.15F
APPLETON       PTSUNNY   64  52  63 S13G20    30.14R
BENSON         PTSUNNY   68  54  60 SW13      30.14F
ORTONVILLE     CLOUDY    64  48  55 S13G21    30.11S
MADISON        LGT RAIN  63  55  77 S14       30.14R
WILLMAR        FAIR      68  52  56 S5        30.17F
$$
MNZ033>034-036-042>043-049>051-058-059-231900-
   Central Minnesota

CITY           SKY/WX    TMP DP  RH WIND       PRES   REMARKS
ST CLOUD       MOSUNNY   74  53  48 S15       30.17F
6HR MIN TEMP:  47; 6HR MAX TEMP:  74;

SAUK CENTRE    FAIR      70  53  54 S15       30.16S
PAYNESVILLE    MOSUNNY   67  52  60 SE10      30.17F
AITKIN         SUNNY     72  54  53 S10       30.16F
PINE RIVER     MOSUNNY   72  54  53 S14G20    30.17F
BRAINERD       MOSUNNY   70  51  51 S14G22    30.16F
STAPLES        PTSUNNY   70  52  52 S12       30.14S
LONG PRAIRIE   FAIR      70  54  56 SE14      30.16S
LITTLE FALLS   PTSUNNY   72  50  46 S12G18    30.16S
LITCHFIELD     PTSUNNY   70  55  60 CALM      30.18F
BUFFALO        MOSUNNY   72  52  49 S13G21    30.20F
MAPLE LAKE     MOSUNNY   72  56  58 S8        30.19F
$$
MNZ037-044-045-052-053-231900-
   East Central Minnesota

CITY           SKY/WX    TMP DP  RH WIND       PRES   REMARKS
PRINCETON      MOSUNNY   73  54  49 SE15      30.19S
MORA           SUNNY     70  50  49 S15       30.21S
CAMBRIDGE      MOSUNNY   73  55  53 S15       30.18F
RUSH CITY      SUNNY     71  52  50 S13       30.21S
MOOSE LAKE     SUNNY     70  50  49 SW13      30.18S
HINCKLEY       FAIR      72  54  53 S12       30.21S
CLOQUET        SUNNY     70  48  46 S14       30.20S
MCGREGOR       SUNNY     70  50  49 S12G21    30.19S
$$
MNZ071>073-080-081-089-090-097-098-231900-
   Southwest Minnesota

CITY           SKY/WX    TMP DP  RH WIND       PRES   REMARKS
MONTEVIDEO     LGT RAIN  64  52  63 SW8       30.16S
GRANITE FALLS  CLOUDY    64  51  62 S12G18    30.18S
CANBY          LGT RAIN  58  54  86 SE6       30.14F
MARSHALL       CLOUDY    59  52  77 SE8       30.14F
REDWOOD FALLS  CLOUDY    68  53  58 S16       30.16F
OLIVIA         CLOUDY    70  54  56 S10       30.16S
PIPESTONE      LGT RAIN  57  55  94 S9        30.13F
WINDOM         CLOUDY    64  54  68 SE8G17    30.17F
WORTHINGTON    CLOUDY    61  55  82 S8G17     30.17F
JACKSON        CLOUDY    68  50  52 S13       30.18F
TRACY          LGT RAIN  59  57  91 S8        30.16S
SLAYTON        CLOUDY    57  56  97 CALM      30.16F
$$
MNZ065>067-074>077-082>085-091>093-231900-
   South Central Minnesota

CITY           SKY/WX    TMP DP  RH WIND       PRES   REMARKS
MANKATO        PTSUNNY   72  50  46 S13       30.20S
NEW ULM        PTSUNNY   70  54  56 S17       30.17F
ST JAMES       CLOUDY    70  52  52 SE10      30.19F
FAIRMONT       CLOUDY    70  50  49 SE20      30.18F
GLENCOE        PTSUNNY   73  51  47 S8G16     30.18F
FARIBAULT      PTSUNNY   72  48  43 S7        30.23S
OWATONNA       PTSUNNY   70  52  52 S7        30.23F
WASECA         PTSUNNY   72  46  40 SE14G20   30.23F
ALBERT LEA     PTSUNNY   72  52  49 S9G16     30.23F
$$
MNZ078>079-086>088-094>096-231900-
   Southeast Minnesota

CITY           SKY/WX    TMP DP  RH WIND       PRES   REMARKS
ROCHESTER      MOSUNNY   69  51  52 S13       30.27F
6HR MIN TEMP:  47; 6HR MAX TEMP:  70;

RED WING       MOSUNNY   75  48  38 S9        30.22F
STANTON        MOSUNNY   73  51  45 S10G17    30.21F
DODGE CENTER   MOSUNNY   66  54  63 S12       30.25F
WINONA         MOSUNNY   72  54  53 S5        30.26F
AUSTIN         PTSUNNY   68  52  56 S10       30.24F
PRESTON        MOSUNNY   69  57  66 SE14      30.27F
$$
ABBREVIATIONS USED IN REMARKS
   TC - TEMPERATURES IN CELSIUS
  WCI - WIND CHILL INDEX
   HX - HEAT INDEX
  VSB - VISIBILITY
$$



USA.gov is the U.S. government's official web portal to all federal, state and local government web resources and services.